Tracking 30986 objects as of 9-Jul-2025
HD Live streaming from Space Station
objects crossing your sky now

CZ-3B R/B

Track CZ-3B R/B now!


NORAD ID: 42663
Int'l Code: 2017-018B
Perigee: 218.1 km
Apogee: 28,862.1 km
Inclination: 20.4 °
Period: 501.6 minutes
Semi major axis: 20911 km
RCS: Unknown
Launch date: April 12, 2017
Source: People's Republic of China (PRC)
Launch site: Xichang Space Center, China (XSC)

Note: This is a ROCKET BODY
Your satellite tracking list
Your tracking list is empty




NASA's NSSDC Master Catalog

Two Line Element Set (TLE):
1 42663U 17018B   25189.74105220  .00022624  00000-0  17847-2 0  9999
2 42663  20.3605 250.7935 6848996 168.1112 225.0418  2.87103095 68708
Source of the keplerian elements: AFSPC